+ View the NASA Portal
+ Center for Near-Earth Object Studies
IMPORTANT:
The SSD Announcement email list is now available. Major changes are coming in the near future, including possible hostname and/or URL changes. To be notified of such changes, subscribe to this email list.
Please visit
this page
for more details.
Don't show this message again
JPL Small-Body Database Browser
Search:
[
help
]
173469 (2000 RX27)
Classification:
Main-belt Asteroid
SPK-ID:
2173469
[
Ephemeris
|
Orbit Diagram
|
Orbital Elements
|
Mission Design
|
Physical Parameters
|
Discovery Circumstances
|
Close-Approach Data
]
[ show orbit diagram ]
Orbital Elements at Epoch 2458600.5 (2019-Apr-27.0) TDB
Reference:
JPL 10
(heliocentric ecliptic J2000)
Element
Value
Uncertainty (1-sigma)
Units
e
.1537677162286419
4.2454e-08
a
2.233362082145064
1.2835e-08
au
q
1.889943095261973
9.3674e-08
au
i
3.572144287502518
7.0849e-06
deg
node
310.5275331155519
7.0803e-05
deg
peri
82.17535300194615
7.4239e-05
deg
M
181.7587677021959
2.3444e-05
deg
t
p
2459204.091075528318
(2020-Dec-20.59107553)
8.1341e-05
TDB
period
1219.093833615015
3.34
1.0509e-05
2.877e-08
d
yr
n
.2953013050131517
2.5456e-09
deg/d
Q
2.576781069028155
1.4808e-08
au
Orbit Determination Parameters
# obs. used (total)
253
data-arc span
8836 days (24.19 yr)
first obs. used
1995-02-21
last obs. used
2019-05-02
planetary ephem.
DE431
SB-pert. ephem.
SB431-N16
condition code
0
norm. resid. RMS
.61197
source
ORB
producer
Otto Matic
solution date
2019-May-30 07:42:01
Additional Information
Earth MOID
= .899136 au
Jupiter MOID
= 2.85536 au
T_jup
= 3.622
[ show covariance matrix ]
[
Ephemeris
|
Orbit Diagram
|
Orbital Elements
|
Mission Design
|
Physical Parameters
|
Discovery Circumstances
|
Close-Approach Data
]
Physical Parameter Table
Parameter
Symbol
Value
Units
Sigma
Reference
Notes
absolute magnitude
H
17.3
n/a
MPO436861
173469 (2000 RX27)
Discovered 2000-Sep-01 by LINEAR at Socorro
Reference:
20080122/Numbers.arc
Last Updated:
2008-01-28
[ show close-approach data ]
Alternate Designations
2000 RX27
= 1995 DV3
[
Ephemeris
|
Orbit Diagram
|
Orbital Elements
|
Mission Design
|
Physical Parameters
|
Discovery Circumstances
|
Close-Approach Data
]
2019-Dec-12 14:37 UT
(server date/time)
Site Manager:
Ryan S. Park
Webmaster
:
Alan B. Chamberlin